SCP
0 0 0 0 0 0 0 0 0 0 0 0 0 0 0 0 0 0 0 0 0 0
0 0 0 0 0 0 0 0 0 0 0 0 0 0 0 0 0 0 0 0 0 0
0 0 0 0 0 0 0 0 0 0 0 0 0 0 0 0 0 0 0 0 0 0
0 0 0 0 0 0 0 0 0 0 0 0 0 0 0 0 0 0 0 0 0 0
0 0 0 0 0 0 0 0 0 0 0 0 0 0 0 0 0 0 0 0 0 0
0 0 0 0 0 0 0 0 0 0 0 0 0 0 0 0 0 0 0 0 0 0
0 0 0 0 0 0 0 0 0 0 0 0 0 0 0 0 0 0 0 0 0 0
0 0 0 0 0 0 0 0 0 0 0 0 0 0 0 0 0 0 0 0 0 0
0 0 0 0 0 0 0 0 0 0 0 0 0 0 0 0 0 0 0 0 0 0
-0 0 0 0 0 0 0 0 0 0 0 0 0 0 0 0 0 0 0 0 0 0
-0 -0 -0 0 0 0 0 0 0 0 0 0 0 0 0 0 0 0 0 0 0 0
0 0 0 0 0 0 0 0 0 0 0 0 0 0 0 0 0 0 0 0 0 0
0 0 0 0 0 0 0 0 0 0 0 0 0 0 0 0 0 0 0 0 0 0
0 0 0 0 0 0 0 0 0 0 0 0 0 0 0 0 0 0 0 0 0 0
Wind_Speed_500mb
89 92 93 94 93 93 95 92 83 80 82 81 77 74 71 70 67 62 60 57 54 50
101 104 106 105 103 103 102 103 96 88 87 88 85 83 81 79 77 72 67 64 59 58
105 109 113 113 115 115 110 111 111 104 98 96 94 92 91 89 84 81 76 72 68 66
104 106 109 115 118 119 118 118 118 117 111 105 102 100 99 98 94 90 84 80 78 73
93 99 103 107 110 115 121 121 123 121 123 118 113 108 106 106 103 99 94 90 85 80
75 85 95 100 100 102 109 116 121 122 125 129 126 121 117 112 108 105 101 96 92 84
68 73 78 86 96 102 103 108 112 115 121 128 130 131 128 121 116 112 109 103 97 89
67 67 71 78 83 90 97 103 109 112 115 119 125 130 131 132 126 123 118 112 103 95
67 62 65 70 74 79 89 95 103 111 115 119 124 130 130 126 129 129 128 122 110 100
69 71 67 74 70 75 82 84 93 103 110 118 125 127 127 126 125 126 130 125 117 103
71 72 75 74 80 82 82 83 81 84 98 110 120 124 126 124 123 122 126 123 118 108
83 81 80 76 76 80 75 77 83 82 83 90 102 114 119 114 118 118 120 119 114 108
82 79 79 82 80 76 79 80 81 83 87 90 93 100 106 108 111 107 110 114 112 102
83 84 77 77 82 82 83 80 81 85 89 97 101 97 100 91 100 100 104 106 107 92
Wind_Direction_500mb
257 256 254 254 252 253 254 253 250 247 245 244 242 242 243 243 243 242 242 241 244 248
262 261 261 259 258 257 257 257 255 251 248 247 245 243 243 243 244 243 244 245 245 247
269 266 265 262 262 262 260 258 258 256 251 248 247 245 244 243 243 242 244 246 246 247
277 274 271 267 266 264 263 261 259 259 257 253 249 246 244 244 244 243 244 244 246 247
288 281 277 275 274 271 267 265 263 261 259 257 254 250 246 244 244 243 242 244 244 246
297 290 284 282 280 277 273 270 267 264 260 260 257 254 250 245 244 245 244 245 245 246
303 299 296 293 286 281 278 274 271 267 265 262 260 258 255 251 247 245 245 244 244 244
316 308 301 296 291 286 280 277 274 270 265 259 256 256 256 254 251 249 247 245 243 243
305 305 309 304 298 292 286 282 276 272 268 261 256 255 254 255 254 252 249 246 243 242
302 302 303 302 298 294 290 287 280 277 272 267 264 260 255 254 251 253 252 248 245 241
300 296 298 290 284 285 290 287 283 286 278 271 269 264 260 254 251 251 253 251 246 242
300 296 297 293 291 280 276 277 276 274 277 274 271 264 259 250 248 248 247 250 245 240
296 298 299 297 292 286 284 282 276 272 271 269 268 264 259 251 247 240 238 243 240 235
300 304 302 300 297 295 291 286 280 274 271 268 267 262 256 258 245 232 234 237 234 225
Wind_Speed_850mb
89 92 93 94 93 93 95 92 83 80 82 81 77 74 71 70 67 62 60 57 54 50
101 104 106 105 103 103 102 103 96 88 87 88 85 83 81 79 77 72 67 64 59 58
105 109 113 113 115 115 110 111 111 104 98 96 94 92 91 89 84 81 76 72 68 66
104 106 109 115 118 119 118 118 118 117 111 105 102 100 99 98 94 90 84 80 78 73
93 99 103 107 110 115 121 121 123 121 123 118 113 108 106 106 103 99 94 90 85 80
75 85 95 100 100 102 109 116 121 122 125 129 126 121 117 112 108 105 101 96 92 84
68 73 78 86 96 102 103 108 112 115 121 128 130 131 128 121 116 112 109 103 97 89
67 67 71 78 83 90 97 103 109 112 115 119 125 130 131 132 126 123 118 112 103 95
67 62 65 70 74 79 89 95 103 111 115 119 124 130 130 126 129 129 128 122 110 100
69 71 67 74 70 75 82 84 93 103 110 118 125 127 127 126 125 126 130 125 117 103
71 72 75 74 80 82 82 83 81 84 98 110 120 124 126 124 123 122 126 123 118 108
83 81 80 76 76 80 75 77 83 82 83 90 102 114 119 114 118 118 120 119 114 108
82 79 79 82 80 76 79 80 81 83 87 90 93 100 106 108 111 107 110 114 112 102
83 84 77 77 82 82 83 80 81 85 89 97 101 97 100 91 100 100 104 106 107 92
Wind_Direction_850mb
257 256 254 254 252 253 254 253 250 247 245 244 242 242 243 243 243 242 242 241 244 248
262 261 261 259 258 257 257 257 255 251 248 247 245 243 243 243 244 243 244 245 245 247
269 266 265 262 262 262 260 258 258 256 251 248 247 245 244 243 243 242 244 246 246 247
277 274 271 267 266 264 263 261 259 259 257 253 249 246 244 244 244 243 244 244 246 247
288 281 277 275 274 271 267 265 263 261 259 257 254 250 246 244 244 243 242 244 244 246
297 290 284 282 280 277 273 270 267 264 260 260 257 254 250 245 244 245 244 245 245 246
303 299 296 293 286 281 278 274 271 267 265 262 260 258 255 251 247 245 245 244 244 244
316 308 301 296 291 286 280 277 274 270 265 259 256 256 256 254 251 249 247 245 243 243
305 305 309 304 298 292 286 282 276 272 268 261 256 255 254 255 254 252 249 246 243 242
302 302 303 302 298 294 290 287 280 277 272 267 264 260 255 254 251 253 252 248 245 241
300 296 298 290 284 285 290 287 283 286 278 271 269 264 260 254 251 251 253 251 246 242
300 296 297 293 291 280 276 277 276 274 277 274 271 264 259 250 248 248 247 250 245 240
296 298 299 297 292 286 284 282 276 272 271 269 268 264 259 251 247 240 238 243 240 235
300 304 302 300 297 295 291 286 280 274 271 268 267 262 256 258 245 232 234 237 234 225